| time (UTC) | temp C | wind direction | speed KPH | gust KPH | rain 1hr cm | rain 24hr cm | rain mn cm | humidity % | barometer mb |
| 20260506221551 | 23 | 355 | 4.8 | 17.7 | 0.00 | 0.00 | 0.00 | 32 | 1016.4 |
| 20260506214548 | 23 | 302 | 3.2 | 17.7 | 0.00 | 0.00 | 0.00 | 33 | 1016.9 |
| 20260506213044 | 23 | 302 | 4.8 | 14.5 | 0.00 | 0.00 | 0.00 | 33 | 1016.9 |
| 20260506211551 | 23 | 315 | 4.8 | 14.5 | 0.00 | 0.00 | 0.00 | 32 | 1017.1 |
| 20260506210038 | 22 | 290 | 4.8 | 16.1 | 0.00 | 0.00 | 0.00 | 33 | 1017.2 |
| 20260506204539 | 22 | 329 | 6.4 | 17.7 | 0.00 | 0.00 | 0.00 | 33 | 1017.5 |
| 20260506203034 | 22 | 336 | 3.2 | 12.9 | 0.00 | 0.00 | 0.00 | 33 | 1017.6 |
| 20260506201531 | 21 | 5 | 6.4 | 16.1 | 0.00 | 0.00 | 0.00 | 34 | 1017.8 |
| 20260506200028 | 21 | 184 | 3.2 | 11.3 | 0.00 | 0.00 | 0.00 | 35 | 1017.8 |
| 20260506194534 | 21 | 329 | 4.8 | 9.7 | 0.00 | 0.00 | 0.00 | 34 | 1018.0 |
| 20260506193024 | 21 | 355 | 6.4 | 19.3 | 0.00 | 0.00 | 0.00 | 36 | 1018.2 |
| 20260506191521 | 20 | 259 | 6.4 | 17.7 | 0.00 | 0.00 | 0.00 | 37 | 1018.4 |
| 20260506190019 | 20 | 344 | 8.0 | 19.3 | 0.00 | 0.00 | 0.00 | 39 | 1018.5 |
| 20260506184516 | 19 | 346 | 3.2 | 14.5 | 0.00 | 0.00 | 0.00 | 40 | 1018.7 |
| 20260506183012 | 18 | 345 | 6.4 | 17.7 | 0.00 | 0.00 | 0.00 | 43 | 1018.8 |
| 20260506181511 | 18 | 350 | 9.7 | 24.1 | 0.00 | 0.00 | 0.00 | 43 | 1018.9 |
| 20260506180009 | 18 | 360 | 3.2 | 14.5 | 0.00 | 0.00 | 0.00 | 43 | 1019.0 |
| 20260506174506 | 17 | 355 | 6.4 | 16.1 | 0.00 | 0.00 | 0.00 | 44 | 1018.9 |
| 20260506173004 | 17 | 355 | 11.3 | 19.3 | 0.00 | 0.00 | 0.00 | 44 | 1019.0 |
| 20260506171608 | 16 | 360 | 8.0 | 17.7 | 0.00 | 0.00 | 0.00 | 49 | 1018.9 |
| 20260506170107 | 16 | 348 | 6.4 | 14.5 | 0.00 | 0.00 | 0.00 | 51 | 1019.0 |
| 20260506164554 | 15 | 355 | 8.0 | 14.5 | 0.00 | 0.00 | 0.00 | 50 | 1018.8 |
| 20260506163051 | 15 | 275 | 4.8 | 19.3 | 0.00 | 0.00 | 0.00 | 53 | 1018.9 |
| 20260506161550 | 14 | 355 | 6.4 | 17.7 | 0.00 | 0.00 | 0.00 | 54 | 1018.8 |
| 20260506160058 | 13 | 304 | 9.7 | 16.1 | 0.00 | 0.00 | 0.00 | 58 | 1018.7 |
| 20260506160024 | 13 | 329 | 9.7 | 16.1 | 0.00 | 0.00 | 0.00 | 58 | 1018.7 |
| 20260506154541 | 12 | 348 | 4.8 | 14.5 | 0.00 | 0.00 | 0.00 | 61 | 1018.7 |
| 20260506153036 | 11 | 351 | 6.4 | 16.1 | 0.00 | 0.00 | 0.00 | 64 | 1018.8 |
| 20260506151533 | 11 | 348 | 6.4 | 16.1 | 0.00 | 0.00 | 0.00 | 68 | 1018.9 |
| 20260506150030 | 11 | 5 | 6.4 | 14.5 | 0.00 | 0.00 | 0.00 | 66 | 1018.8 |
| 20260506144526 | 10 | 355 | 4.8 | 14.5 | 0.00 | 0.00 | 0.00 | 68 | 1018.6 |
| 20260506143023 | 10 | 347 | 4.8 | 12.9 | 0.00 | 0.00 | 0.00 | 71 | 1018.7 |
| 20260506141519 | 8 | 284 | 3.2 | 14.5 | 0.00 | 0.00 | 0.00 | 76 | 1018.7 |
| 20260506140015 | 7 | 294 | 3.2 | 14.5 | 0.00 | 0.00 | 0.00 | 81 | 1018.7 |
| 20260506134515 | 7 | 360 | 1.6 | 4.8 | 0.00 | 0.00 | 0.00 | 82 | 1018.4 |
| 20260506133011 | 7 | 360 | 1.6 | 6.4 | 0.00 | 0.00 | 0.00 | 83 | 1018.3 |
| 20260506131525 | 7 | 360 | 1.6 | 6.4 | 0.00 | 0.00 | 0.00 | 83 | 1018.1 |
| 20260506130008 | 7 | 360 | 1.6 | 4.8 | 0.00 | 0.00 | 0.00 | 82 | 1018.1 |
| 20260506124507 | 7 | 5 | 3.2 | 9.7 | 0.00 | 0.00 | 0.00 | 82 | 1017.9 |
| 20260506123005 | 7 | 290 | 3.2 | 17.7 | 0.00 | 0.00 | 0.00 | 82 | 1018.0 |
| 20260506121504 | 7 | 309 | 3.2 | 16.1 | 0.00 | 0.00 | 0.00 | 81 | 1017.8 |
| 20260506120003 | 7 | 296 | 4.8 | 12.9 | 0.00 | 0.00 | 0.00 | 81 | 1017.8 |
| 20260506114700 | 7 | 344 | 3.2 | 17.7 | 0.00 | 0.00 | 0.00 | 81 | 1017.8 |
| 20260506113059 | 7 | 336 | 3.2 | 12.9 | 0.00 | 0.00 | 0.00 | 79 | 1017.7 |
| 20260506111556 | 7 | 5 | 6.4 | 16.1 | 0.00 | 0.00 | 0.00 | 79 | 1017.6 |
| 20260506110103 | 7 | 5 | 3.2 | 16.1 | 0.00 | 0.00 | 0.00 | 79 | 1017.8 |
| 20260506104557 | 7 | 292 | 3.2 | 16.1 | 0.00 | 0.00 | 0.00 | 80 | 1017.6 |
| 20260506103052 | 7 | 319 | 1.6 | 9.7 | 0.00 | 0.00 | 0.00 | 79 | 1017.7 |
| 20260506101551 | 8 | 311 | 4.8 | 17.7 | 0.00 | 0.00 | 0.00 | 79 | 1017.7 |
| 20260506100050 | 7 | 322 | 3.2 | 8.0 | 0.00 | 0.00 | 0.00 | 79 | 1017.7 |
| 20260506094614 | 7 | 344 | 4.8 | 14.5 | 0.00 | 0.00 | 0.00 | 79 | 1017.6 |
| 20260506093047 | 8 | 301 | 1.6 | 12.9 | 0.00 | 0.00 | 0.00 | 78 | 1017.5 |
| 20260506091549 | 8 | 336 | 4.8 | 16.1 | 0.00 | 0.00 | 0.00 | 79 | 1017.5 |
| 20260506090045 | 7 | 343 | 4.8 | 12.9 | 0.00 | 0.00 | 0.00 | 79 | 1017.8 |
| 20260506084545 | 8 | 283 | 1.6 | 12.9 | 0.00 | 0.00 | 0.00 | 78 | 1017.7 |
| 20260506083041 | 8 | 335 | 6.4 | 16.1 | 0.00 | 0.00 | 0.00 | 79 | 1017.9 |
| 20260506081543 | 8 | 355 | 3.2 | 19.3 | 0.00 | 0.00 | 0.00 | 78 | 1017.8 |
| 20260506073038 | 8 | 355 | 6.4 | 17.7 | 0.00 | 0.00 | 0.00 | 78 | 1017.9 |
| 20260506071535 | 8 | 340 | 4.8 | 16.1 | 0.00 | 0.00 | 0.00 | 78 | 1017.7 |
| 20260506061527 | 8 | 306 | 4.8 | 14.5 | 0.00 | 0.00 | 0.00 | 78 | 1017.1 |
| 20260506044522 | 7 | 360 | 4.8 | 14.5 | 0.00 | 0.00 | 0.00 | 80 | 1016.6 |
| 20260506043020 | 7 | 309 | 4.8 | 12.9 | 0.00 | 0.00 | 0.00 | 81 | 1016.6 |
| 20260506041521 | 7 | 335 | 6.4 | 16.1 | 0.00 | 0.00 | 0.00 | 82 | 1016.2 |
| 20260506040018 | 7 | 355 | 4.8 | 14.5 | 0.00 | 0.00 | 0.00 | 81 | 1016.2 |
| 20260506034516 | 7 | 355 | 4.8 | 14.5 | 0.00 | 0.00 | 0.00 | 81 | 1016.0 |
| 20260506033016 | 7 | 355 | 3.2 | 9.7 | 0.00 | 0.00 | 0.00 | 81 | 1016.0 |
| 20260506031513 | 7 | 348 | 4.8 | 14.5 | 0.00 | 0.00 | 0.00 | 81 | 1015.7 |
| 20260506030025 | 8 | 360 | 3.2 | 14.5 | 0.00 | 0.00 | 0.00 | 80 | 1015.6 |
| 20260506024525 | 8 | 288 | 8.0 | 16.1 | 0.00 | 0.00 | 0.00 | 80 | 1015.4 |
| 20260506023009 | 8 | 331 | 6.4 | 17.7 | 0.00 | 0.00 | 0.00 | 79 | 1015.4 |
| 20260506021508 | 8 | 323 | 6.4 | 25.7 | 0.00 | 0.00 | 0.00 | 78 | 1015.1 |
| 20260506020007 | 8 | 5 | 4.8 | 14.5 | 0.00 | 0.00 | 0.00 | 77 | 1015.0 |
| 20260506014506 | 9 | 5 | 4.8 | 19.3 | 0.00 | 0.00 | 0.00 | 76 | 1014.8 |
| 20260506013008 | 9 | 355 | 8.0 | 22.5 | 0.00 | 0.00 | 0.00 | 75 | 1014.9 |
| 20260506011506 | 9 | 5 | 8.0 | 16.1 | 0.00 | 0.00 | 0.00 | 74 | 1015.1 |
| 20260506010106 | 9 | 322 | 6.4 | 20.9 | 0.00 | 0.00 | 0.00 | 74 | 1015.1 |
| 20260506004505 | 10 | 360 | 6.4 | 24.1 | 0.00 | 0.00 | 0.00 | 71 | 1015.0 |
| 20260506003011 | 10 | 360 | 6.4 | 25.7 | 0.00 | 0.00 | 0.00 | 71 | 1014.9 |
| 20260506001503 | 10 | 275 | 6.4 | 22.5 | 0.00 | 0.00 | 0.00 | 72 | 1014.6 |
| 20260506000002 | 10 | 284 | 6.4 | 19.3 | 0.00 | 0.00 | 0.00 | 72 | 1014.7 |
| 20260505234502 | 10 | 360 | 11.3 | 25.7 | 0.00 | 0.00 | 0.00 | 71 | 1014.5 |
| 20260505233001 | 10 | 309 | 6.4 | 25.7 | 0.00 | 0.00 | 0.00 | 72 | 1014.6 |
| 20260505231501 | 10 | 331 | 9.7 | 22.5 | 0.00 | 0.00 | 0.00 | 71 | 1014.5 |
| 20260505224600 | 11 | 355 | 9.7 | 19.3 | 0.00 | 0.00 | 0.00 | 68 | 1014.8 |
| 20260505223059 | 11 | 346 | 9.7 | 25.7 | 0.00 | 0.00 | 0.00 | 70 | 1014.7 |